GFSNE_850_dewp_051.txt.gz
Dewpoint
7 7 7 6 3 5 6 5 5 5 4 3 3 3 3 2 2 2 2 2 1 2 3 3 4 4 3 3 2 2 2 2 1 1 1 1 1 1
2 0 0 2 2 4 3 4 4 4 3 3 3 3 2 1 1 1 1 1 1 1 2 2 3 2 2 2 2 1 1 0 -0 -0 0 0 0 0
1 1 1 1 1 1 1 2 3 3 2 2 2 2 1 1 1 1 0 -0 0 1 2 2 1 1 1 1 0 -0 -1 -1 -1 -1 -0 -0 -0 -0
2 1 1 1 1 1 1 2 2 2 2 2 1 1 1 1 1 0 0 -1 -1 -0 0 -0 -1 -1 -1 -1 -1 -1 -1 -1 -1 -1 -1 -1 -1 -2
1 1 1 1 1 1 1 2 2 1 1 1 1 1 0 0 -0 -0 -1 -1 -1 -2 -1 -1 -2 -2 -2 -1 -1 -2 -2 -2 -2 -2 -2 -3 -6 -5
1 1 1 1 1 1 1 1 0 -0 -0 0 0 -0 -0 -1 -1 -1 -2 -2 -1 -1 -2 -2 -2 -2 -2 -2 -2 -2 -2 -3 -4 -6 -10 -14 -18 -11
1 1 1 0 0 -0 -0 -1 -1 -1 -1 -1 -2 -1 -2 -2 -2 -3 -3 -4 -5 -5 -5 -5 -6 -8 -10 -12 -13 -14 -14 -15 -16 -20 -23 -23 -22 -14
-0 -0 -1 -1 -1 -1 -2 -2 -2 -2 -2 -2 -2 -3 -4 -6 -9 -13 -16 -17 -17 -18 -19 -20 -20 -22 -23 -24 -25 -25 -26 -26 -25 -21 -18 -16 -14 -6
-6 -6 -5 -6 -6 -8 -10 -15 -21 -23 -24 -23 -21 -21 -21 -20 -20 -19 -19 -18 -19 -19 -21 -25 -25 -24 -23 -22 -21 -19 -18 -17 -15 -15 -14 -14 -11 -9
-27 -26 -26 -26 -27 -26 -26 -25 -25 -24 -23 -23 -23 -22 -21 -20 -20 -19 -18 -19 -21 -21 -22 -22 -18 -14 -14 -14 -14 -14 -14 -13 -13 -13 -13 -13 -12 -10
-28 -29 -28 -27 -27 -28 -27 -26 -26 -25 -25 -25 -24 -23 -22 -21 -21 -20 -20 -21 -22 -19 -15 -13 -13 -13 -13 -13 -12 -12 -12 -13 -13 -13 -13 -13 -12 -12
-27 -26 -26 -26 -26 -26 -27 -25 -25 -24 -24 -23 -24 -24 -25 -24 -24 -23 -22 -21 -17 -14 -13 -12 -12 -11 -11 -11 -12 -11 -11 -11 -12 -12 -12 -11 -11 -11
-26 -26 -25 -25 -26 -26 -27 -25 -25 -26 -24 -25 -25 -25 -24 -23 -22 -19 -16 -14 -13 -12 -12 -11 -11 -10 -10 -10 -11 -10 -10 -10 -10 -11 -11 -11 -11 -11
-27 -26 -26 -25 -25 -24 -24 -24 -25 -24 -25 -24 -23 -22 -20 -17 -14 -13 -12 -12 -12 -11 -10 -10 -10 -10 -9 -9 -10 -10 -10 -10 -10 -10 -10 -11 -11 -11
-26 -27 -26 -25 -24 -24 -24 -24 -25 -24 -23 -21 -19 -15 -13 -13 -12 -12 -12 -11 -11 -11 -11 -10 -10 -10 -10 -9 -10 -10 -10 -10 -10 -10 -10 -10 -9 -10
-26 -25 -24 -24 -23 -24 -24 -24 -24 -23 -21 -19 -16 -14 -13 -13 -13 -12 -12 -12 -12 -12 -12 -12 -12 -12 -11 -10 -10 -10 -9 -9 -10 -10 -10 -10 -10 -10
-27 -24 -24 -24 -23 -23 -24 -24 -24 -23 -21 -20 -18 -16 -15 -15 -14 -14 -14 -14 -14 -13 -13 -14 -14 -13 -11 -9 -9 -9 -10 -10 -10 -10 -10 -10 -10 -10
-25 -23 -23 -24 -24 -24 -24 -24 -24 -24 -23 -22 -21 -20 -19 -18 -17 -17 -17 -17 -16 -15 -14 -14 -11 -9 -9 -9 -10 -10 -10 -10 -10 -11 -11 -11 -12 -12
-24 -23 -24 -24 -23 -23 -24 -24 -24 -24 -24 -23 -23 -22 -21 -20 -20 -19 -18 -18 -17 -16 -13 -10 -9 -9 -9 -10 -10 -10 -10 -10 -10 -10 -10 -10 -11 -12
-24 -24 -25 -25 -24 -24 -24 -24 -24 -24 -24 -23 -23 -22 -21 -21 -20 -19 -18 -17 -14 -10 -9 -9 -9 -9 -10 -10 -10 -10 -10 -10 -10 -10 -10 -11 -11 -11
-24 -24 -25 -25 -25 -24 -24 -24 -24 -24 -23 -23 -22 -21 -20 -19 -18 -15 -11 -9 -9 -9 -9 -9 -9 -9 -10 -10 -10 -10 -10 -10 -10 -10 -11 -11 -11 -11
-24 -24 -25 -25 -25 -24 -24 -24 -24 -23 -22 -21 -20 -18 -14 -11 -10 -9 -9 -9 -9 -9 -10 -10 -10 -10 -10 -10 -10 -10 -10 -11 -11 -11 -11 -11 -11 -10
-24 -24 -24 -24 -24 -24 -24 -23 -22 -20 -18 -15 -12 -10 -9 -9 -9 -9 -10 -10 -10 -10 -10 -11 -11 -10 -10 -10 -10 -11 -11 -11 -11 -11 -11 -11 -11 -11

GFSNE_850_dewp_054.txt.gz
Dewpoint
8 9 8 8 7 7 6 5 5 5 4 4 4 3 3 3 1 1 2 1 1 0 1 2 4 4 5 5 4 4 4 3 2 2 2 2 1 2
6 6 5 3 1 1 2 4 4 4 4 4 3 3 2 2 1 1 1 0 -0 1 2 2 3 2 3 3 3 3 3 2 1 1 1 1 1 1
1 1 1 1 1 1 1 2 2 3 3 2 2 2 1 1 1 1 0 -0 0 1 1 2 2 2 2 2 2 2 2 2 1 0 0 0 0 0
2 2 1 1 1 1 1 1 2 2 2 2 1 1 1 1 0 0 -0 -0 -1 1 1 1 2 1 0 -1 1 1 1 -0 -1 -1 -1 -1 -0 -0
1 1 1 1 1 1 1 1 2 1 1 1 1 1 1 0 -0 -1 -1 -1 -1 -1 -1 -1 -1 -1 -2 -2 -2 -2 -2 -1 -1 -1 -2 -1 -1 -1
1 1 1 1 0 1 1 1 0 0 -0 -0 0 -0 -1 -1 -1 -2 -2 -2 -2 -2 -2 -2 -2 -2 -2 -2 -2 -2 -2 -2 -2 -2 -2 -3 -4 -8
1 1 1 0 0 0 -0 -0 -1 -1 -1 -1 -2 -2 -2 -2 -3 -4 -5 -8 -10 -11 -10 -10 -9 -9 -11 -11 -10 -9 -8 -8 -8 -11 -13 -15 -19 -22
0 -0 -1 -1 -2 -2 -2 -2 -2 -2 -3 -3 -3 -4 -6 -10 -18 -19 -20 -21 -14 -19 -23 -23 -24 -25 -25 -25 -25 -25 -24 -24 -24 -25 -26 -26 -23 -20
-5 -7 -8 -8 -9 -13 -17 -23 -25 -25 -25 -24 -21 -20 -19 -21 -21 -20 -20 -20 -14 -17 -25 -24 -25 -25 -24 -24 -24 -23 -22 -22 -22 -20 -18 -17 -16 -13
-28 -27 -26 -25 -25 -26 -26 -25 -25 -24 -24 -24 -24 -22 -21 -21 -22 -22 -20 -20 -19 -17 -23 -19 -15 -14 -14 -14 -15 -14 -14 -14 -14 -14 -14 -14 -13 -10
-29 -29 -27 -26 -27 -27 -26 -24 -23 -24 -25 -25 -25 -25 -26 -26 -25 -22 -19 -19 -16 -14 -15 -13 -12 -13 -13 -13 -13 -13 -13 -13 -13 -13 -13 -13 -11 -7
-28 -27 -27 -27 -26 -27 -25 -23 -24 -24 -23 -23 -24 -25 -25 -25 -25 -24 -23 -21 -17 -12 -13 -13 -12 -12 -11 -11 -12 -12 -11 -11 -11 -12 -12 -12 -12 -12
-27 -26 -26 -27 -27 -26 -26 -24 -24 -24 -23 -24 -25 -25 -24 -23 -22 -19 -16 -14 -13 -12 -12 -11 -11 -10 -10 -10 -11 -11 -10 -10 -10 -10 -10 -11 -12 -11
-27 -27 -26 -26 -26 -26 -25 -25 -26 -25 -24 -24 -23 -22 -19 -17 -14 -13 -13 -13 -12 -12 -11 -11 -11 -10 -10 -10 -11 -10 -10 -10 -10 -10 -10 -10 -10 -10
-27 -28 -28 -27 -25 -24 -24 -25 -25 -24 -24 -22 -20 -17 -15 -14 -13 -13 -13 -13 -12 -12 -12 -11 -11 -11 -11 -11 -11 -11 -11 -10 -10 -10 -10 -10 -10 -10
-27 -26 -26 -26 -25 -23 -24 -25 -25 -25 -23 -21 -19 -16 -15 -14 -13 -13 -13 -13 -13 -13 -13 -13 -13 -13 -13 -13 -12 -11 -10 -9 -9 -10 -10 -10 -10 -10
-28 -25 -24 -24 -24 -24 -24 -24 -25 -25 -24 -23 -21 -19 -18 -17 -16 -16 -16 -16 -16 -16 -15 -15 -15 -15 -13 -11 -10 -9 -9 -9 -10 -10 -10 -10 -11 -11
-26 -24 -23 -23 -23 -24 -24 -24 -25 -25 -25 -24 -23 -22 -21 -20 -20 -19 -19 -18 -18 -17 -17 -16 -15 -11 -9 -9 -9 -10 -10 -10 -10 -10 -10 -10 -11 -11
-24 -22 -23 -24 -24 -24 -24 -24 -24 -24 -24 -24 -23 -23 -22 -22 -21 -21 -20 -19 -18 -18 -16 -13 -10 -9 -9 -9 -9 -10 -10 -10 -10 -10 -10 -10 -10 -10
-23 -23 -23 -24 -24 -24 -24 -24 -24 -24 -24 -23 -23 -22 -22 -21 -21 -20 -19 -18 -15 -12 -10 -9 -9 -9 -9 -9 -10 -10 -10 -10 -10 -10 -10 -10 -10 -11
-24 -23 -23 -24 -24 -24 -25 -24 -24 -24 -23 -23 -22 -22 -21 -20 -19 -16 -12 -10 -9 -9 -9 -10 -10 -10 -10 -10 -10 -10 -10 -10 -10 -10 -11 -11 -11 -11
-25 -24 -23 -23 -23 -23 -24 -24 -24 -23 -23 -22 -21 -20 -17 -14 -11 -9 -9 -9 -10 -10 -11 -11 -11 -11 -11 -11 -11 -11 -11 -11 -11 -11 -11 -11 -11 -10
-24 -24 -24 -23 -22 -23 -23 -23 -22 -21 -19 -17 -14 -11 -10 -9 -9 -10 -10 -11 -11 -11 -11 -12 -12 -11 -11 -11 -11 -11 -11 -11 -11 -11 -11 -11 -11 -11

GFSNE_850_dewp_060.txt.gz
Dewpoint
7 7 8 8 9 8 7 7 7 7 5 5 5 4 4 3 2 1 -0 0 0 -0 -1 -0 1 2 4 4 5 5 4 3 3 3 5 4 3 2
7 6 7 7 7 7 7 7 4 5 5 4 4 4 3 2 1 -0 0 0 -0 -1 -0 1 1 2 2 4 4 4 4 4 5 4 4 3 3 2
6 6 6 6 6 5 3 2 2 2 3 3 3 3 2 1 0 0 0 -0 -1 -1 -0 -0 1 1 1 1 3 3 3 4 4 3 3 3 2 2
4 3 3 3 2 2 2 2 1 1 1 2 2 1 1 1 0 0 -0 -1 -1 -1 -1 -0 0 0 0 0 0 1 1 1 1 1 2 1 1 1
3 3 3 2 2 1 1 1 1 1 1 1 1 0 1 0 0 0 -1 -1 -2 -2 -2 -2 -1 -1 -1 -0 -0 -1 -1 -1 -1 -1 -0 -0 0 -1
2 2 2 1 1 1 1 0 0 0 1 0 -0 -1 -1 -1 -1 -2 -2 -3 -4 -7 -9 -9 -6 -4 -3 -3 -2 -2 -2 -2 -2 -2 -2 -2 -2 -2
2 2 1 1 1 0 -0 -0 -0 -0 -0 -1 -1 -1 -2 -3 -5 -8 -13 -19 -21 -23 -21 -19 -23 -23 -22 -22 -20 -19 -18 -16 -12 -8 -5 -4 -3 -3
1 1 1 1 0 -1 -3 -3 -4 -3 -3 -4 -5 -7 -8 -9 -13 -20 -24 -26 -25 -22 -23 -25 -29 -26 -27 -27 -27 -28 -29 -29 -28 -27 -25 -23 -22 -22
0 0 -1 -4 -9 -15 -20 -24 -26 -27 -27 -24 -23 -18 -16 -20 -20 -24 -26 -26 -25 -25 -25 -27 -26 -23 -23 -20 -20 -18 -19 -20 -20 -20 -22 -25 -26 -26
-7 -12 -17 -21 -24 -27 -27 -27 -27 -28 -26 -25 -27 -25 -24 -25 -25 -26 -27 -27 -25 -23 -21 -21 -19 -17 -16 -15 -15 -14 -14 -15 -15 -14 -14 -15 -15 -15
-27 -28 -28 -27 -27 -26 -27 -27 -27 -26 -24 -27 -28 -28 -28 -28 -28 -28 -29 -28 -27 -19 -18 -15 -16 -15 -15 -14 -13 -13 -13 -13 -13 -12 -12 -13 -13 -13
-27 -27 -27 -28 -28 -28 -28 -27 -24 -24 -24 -24 -26 -27 -27 -28 -29 -29 -28 -26 -21 -16 -12 -13 -14 -14 -13 -13 -12 -12 -12 -12 -12 -11 -11 -11 -11 -11
-26 -25 -25 -26 -28 -29 -30 -28 -25 -25 -26 -26 -27 -27 -27 -27 -26 -23 -20 -17 -15 -14 -14 -13 -13 -13 -13 -13 -14 -13 -13 -12 -12 -11 -11 -11 -11 -11
-25 -25 -25 -26 -28 -30 -29 -28 -27 -27 -26 -27 -27 -26 -24 -23 -20 -17 -15 -14 -14 -14 -13 -13 -13 -13 -13 -14 -14 -13 -12 -12 -12 -12 -11 -10 -10 -10
-26 -25 -26 -28 -29 -28 -27 -27 -27 -27 -27 -27 -26 -25 -23 -20 -17 -15 -14 -14 -14 -14 -14 -14 -14 -14 -14 -14 -13 -13 -14 -13 -11 -10 -9 -10 -10 -10
-25 -24 -24 -26 -27 -27 -26 -26 -26 -26 -27 -27 -26 -24 -22 -21 -18 -16 -16 -16 -17 -16 -16 -16 -16 -16 -15 -15 -15 -15 -14 -12 -10 -10 -10 -10 -10 -11
-26 -25 -24 -25 -24 -24 -24 -25 -25 -25 -26 -26 -26 -26 -24 -23 -22 -21 -20 -20 -19 -19 -19 -18 -18 -17 -17 -16 -15 -14 -11 -10 -10 -10 -10 -10 -10 -11
-25 -26 -25 -24 -23 -23 -23 -23 -23 -25 -25 -26 -26 -26 -25 -25 -24 -23 -22 -22 -21 -20 -19 -19 -18 -17 -15 -13 -11 -11 -11 -11 -11 -10 -10 -10 -10 -11
-22 -23 -25 -24 -22 -22 -23 -24 -24 -24 -24 -25 -25 -25 -25 -24 -24 -23 -22 -22 -21 -20 -18 -17 -14 -12 -10 -10 -11 -11 -11 -12 -11 -12 -11 -11 -11 -11
-20 -20 -20 -22 -23 -23 -23 -23 -23 -23 -24 -24 -24 -24 -24 -24 -23 -23 -22 -21 -19 -17 -13 -11 -10 -10 -10 -10 -11 -13 -12 -12 -13 -12 -13 -12 -11 -11
-18 -18 -19 -19 -21 -24 -24 -23 -23 -22 -22 -23 -24 -24 -23 -23 -22 -21 -20 -18 -15 -11 -10 -11 -11 -11 -11 -11 -11 -12 -13 -13 -12 -11 -11 -11 -12 -11
-13 -16 -17 -18 -18 -21 -24 -23 -23 -22 -22 -22 -23 -22 -21 -20 -18 -16 -13 -11 -10 -10 -10 -10 -11 -11 -12 -11 -12 -11 -11 -12 -12 -12 -11 -11 -11 -10
-10 -11 -11 -16 -18 -13 -22 -24 -23 -22 -22 -22 -22 -21 -18 -14 -11 -10 -9 -9 -9 -9 -9 -10 -11 -11 -12 -11 -11 -11 -11 -12 -12 -12 -12 -12 -12 -11

GFSNE_850_dewp_063.txt.gz
Dewpoint
6 7 7 7 7 7 7 8 8 8 7 7 6 5 5 4 3 2 0 -0 0 0 -0 -1 -0 2 4 5 5 3 4 6 5 5 4 6 5 5
6 6 6 6 7 7 6 7 6 7 6 5 5 5 4 4 3 1 -0 0 -0 -1 -1 -0 0 2 3 4 4 3 4 4 4 4 4 5 5 5
5 6 6 6 5 5 6 6 6 4 4 4 4 4 4 3 1 0 0 -0 -1 -1 -1 -1 0 1 1 1 2 3 3 3 4 4 4 4 3 3
5 5 5 4 4 4 3 3 2 1 2 3 3 3 2 1 1 0 0 -0 -1 -2 -2 -2 -1 -1 0 0 0 1 2 2 2 3 3 3 3 2
4 4 3 3 3 3 2 2 1 1 1 1 2 1 0 1 0 -0 -0 -1 -1 -2 -3 -3 -3 -2 -1 -1 -1 -0 -0 -0 -0 -0 -0 -1 -0 -0
4 3 3 2 2 2 1 1 1 1 0 0 0 0 -0 -1 -1 -2 -2 -2 -4 -8 -14 -18 -20 -16 -11 -6 -4 -3 -2 -2 -2 -2 -2 -2 -2 -2
3 3 2 2 1 1 1 0 0 0 0 0 -0 -1 -2 -4 -6 -7 -10 -16 -22 -25 -24 -20 -22 -24 -26 -27 -26 -24 -23 -21 -18 -16 -12 -8 -5 -4
2 2 2 1 1 0 0 -1 -2 -2 -2 -3 -2 -4 -7 -9 -10 -15 -21 -24 -25 -25 -23 -26 -28 -28 -28 -28 -28 -28 -28 -30 -30 -30 -29 -27 -25 -23
0 0 1 0 -1 -5 -10 -16 -21 -25 -25 -25 -21 -18 -16 -15 -17 -21 -26 -26 -26 -26 -25 -27 -25 -22 -21 -20 -19 -18 -17 -18 -20 -20 -19 -19 -22 -25
0 -0 -2 -7 -14 -21 -25 -26 -27 -27 -26 -27 -25 -23 -21 -23 -23 -23 -25 -25 -25 -25 -23 -21 -19 -16 -16 -16 -15 -15 -15 -15 -15 -14 -14 -14 -14 -15
-10 -15 -21 -23 -23 -26 -27 -28 -28 -27 -26 -28 -28 -28 -28 -28 -28 -28 -29 -28 -27 -23 -18 -16 -16 -15 -15 -14 -13 -13 -13 -13 -12 -12 -12 -12 -12 -12
-26 -24 -26 -26 -25 -26 -28 -28 -27 -26 -25 -24 -25 -26 -27 -27 -28 -29 -28 -27 -23 -18 -14 -15 -15 -15 -14 -13 -13 -13 -13 -13 -12 -12 -11 -11 -11 -11
-25 -24 -24 -25 -26 -27 -29 -29 -26 -26 -25 -27 -27 -27 -27 -27 -26 -25 -22 -19 -16 -15 -15 -15 -15 -14 -15 -15 -15 -14 -13 -12 -12 -12 -12 -12 -11 -11
-24 -24 -23 -24 -26 -29 -30 -29 -28 -27 -27 -28 -28 -27 -26 -24 -23 -19 -17 -16 -15 -14 -14 -14 -14 -15 -15 -16 -15 -14 -13 -13 -14 -13 -12 -11 -10 -10
-26 -24 -24 -26 -28 -29 -29 -27 -26 -26 -27 -27 -27 -26 -25 -23 -20 -18 -16 -15 -14 -15 -14 -14 -15 -15 -16 -15 -15 -15 -15 -15 -14 -11 -10 -10 -10 -10
-26 -25 -24 -24 -26 -27 -26 -25 -25 -25 -26 -26 -27 -26 -24 -22 -20 -19 -17 -17 -16 -16 -16 -17 -17 -17 -17 -16 -16 -16 -15 -14 -13 -11 -10 -11 -10 -10
-25 -25 -24 -23 -23 -23 -23 -23 -24 -24 -24 -25 -27 -27 -26 -24 -23 -22 -21 -20 -20 -20 -20 -20 -19 -18 -18 -17 -16 -14 -13 -12 -12 -11 -11 -11 -12 -11
-23 -25 -25 -25 -24 -22 -22 -22 -23 -23 -24 -25 -25 -26 -26 -25 -25 -24 -24 -23 -22 -22 -21 -20 -19 -18 -15 -13 -13 -14 -13 -14 -14 -13 -12 -12 -14 -14
-22 -22 -22 -23 -23 -23 -22 -22 -23 -24 -23 -24 -24 -24 -25 -25 -25 -24 -24 -23 -22 -22 -21 -19 -17 -14 -11 -11 -14 -14 -15 -15 -15 -15 -14 -13 -14 -15
-20 -20 -20 -19 -20 -21 -23 -23 -23 -23 -23 -22 -23 -24 -24 -24 -24 -23 -23 -22 -22 -20 -19 -16 -12 -10 -10 -11 -11 -15 -14 -14 -14 -13 -12 -12 -12 -12
-20 -20 -19 -18 -18 -19 -20 -23 -24 -24 -23 -22 -21 -22 -23 -23 -23 -22 -22 -21 -19 -15 -12 -10 -10 -10 -10 -11 -11 -14 -15 -13 -12 -11 -12 -12 -12 -12
-17 -11 -13 -13 -9 -17 -18 -19 -23 -24 -23 -22 -21 -21 -22 -22 -21 -20 -18 -15 -12 -10 -10 -10 -10 -10 -10 -11 -12 -14 -13 -12 -11 -12 -12 -12 -11 -11
-2 -3 -10 -12 -5 -12 -13 -13 -7 -8 -14 -23 -22 -21 -21 -21 -19 -16 -13 -11 -10 -10 -9 -10 -9 -10 -10 -11 -12 -12 -11 -11 -12 -12 -12 -12 -12 -12

GFSNE_850_dewp_066.txt.gz
Dewpoint
0 3 3 7 7 7 6 7 7 7 7 7 6 6 6 5 5 3 2 -0 -1 -1 -0 0 -0 3 4 4 4 3 4 6 4 5 7 7 6 6
2 6 6 6 6 6 6 6 7 8 7 6 6 6 5 5 4 3 1 -0 -0 -1 -1 -1 0 1 3 3 3 2 3 4 5 5 5 4 5 6
5 5 5 5 5 5 5 6 5 5 6 6 5 5 4 3 3 2 0 -0 -0 -1 -2 -2 -1 1 1 2 2 1 1 2 3 3 4 4 4 5
5 4 5 5 4 5 5 5 5 5 5 4 4 3 3 2 2 1 0 -0 -1 -1 -2 -2 -2 -1 -0 0 1 1 2 3 3 3 4 3 3 4
4 4 4 4 4 4 4 3 3 2 2 2 3 2 2 1 0 0 -0 -0 -1 -1 -2 -3 -4 -3 -2 -1 -1 -0 -0 0 0 1 2 2 2 3
3 3 3 3 3 3 3 2 2 1 1 1 1 1 0 -0 -0 -1 -1 -2 -3 -5 -10 -17 -20 -20 -15 -8 -4 -2 -1 -1 -1 -1 -1 -1 -2 -2
2 2 3 2 3 2 2 1 1 1 0 0 0 -0 -1 -2 -4 -4 -5 -9 -16 -22 -23 -23 -22 -23 -26 -27 -26 -24 -22 -17 -12 -8 -6 -5 -4 -3
2 2 1 1 2 2 1 1 0 -0 -1 -0 -1 -1 -3 -6 -7 -10 -15 -21 -24 -26 -22 -23 -27 -27 -27 -27 -27 -28 -29 -30 -31 -30 -30 -29 -28 -27
1 1 0 0 0 0 -0 -3 -7 -8 -9 -9 -10 -13 -14 -13 -15 -18 -22 -26 -26 -25 -25 -25 -26 -23 -21 -19 -19 -18 -17 -18 -19 -20 -20 -20 -20 -22
-0 -1 -0 -0 -1 -5 -12 -18 -22 -25 -26 -26 -24 -21 -20 -21 -21 -23 -25 -26 -26 -25 -23 -23 -20 -18 -17 -16 -16 -15 -15 -15 -15 -14 -14 -14 -14 -15
-1 -1 -3 -9 -15 -20 -22 -25 -26 -25 -25 -26 -26 -24 -26 -27 -28 -28 -29 -29 -30 -25 -21 -18 -17 -16 -15 -15 -14 -14 -13 -13 -13 -12 -12 -12 -12 -12
-14 -19 -23 -24 -22 -24 -24 -25 -25 -24 -24 -23 -23 -25 -26 -27 -29 -29 -30 -29 -28 -22 -17 -15 -16 -15 -15 -14 -12 -14 -13 -14 -13 -13 -12 -12 -12 -12
-25 -25 -25 -25 -25 -26 -26 -27 -26 -24 -24 -23 -24 -24 -25 -26 -27 -27 -26 -24 -19 -16 -15 -15 -15 -15 -15 -14 -15 -15 -15 -13 -12 -12 -13 -13 -12 -12
-24 -23 -22 -23 -24 -25 -28 -28 -28 -27 -26 -26 -25 -25 -25 -25 -24 -23 -21 -18 -16 -15 -15 -15 -15 -15 -15 -16 -16 -15 -14 -14 -14 -14 -14 -13 -12 -11
-24 -23 -23 -23 -24 -27 -29 -28 -27 -26 -25 -25 -26 -26 -25 -24 -23 -21 -18 -16 -15 -15 -15 -15 -15 -15 -16 -16 -16 -16 -16 -16 -15 -14 -11 -11 -11 -11
-26 -25 -25 -24 -23 -24 -24 -25 -25 -24 -24 -25 -26 -25 -25 -24 -22 -21 -20 -17 -16 -16 -16 -17 -17 -17 -18 -17 -17 -17 -16 -15 -14 -13 -12 -13 -13 -11
-21 -22 -23 -23 -22 -22 -22 -22 -22 -23 -23 -24 -24 -25 -25 -24 -23 -23 -22 -22 -21 -19 -19 -19 -20 -19 -19 -18 -17 -16 -14 -14 -14 -14 -13 -15 -15 -13
-21 -22 -23 -24 -24 -23 -22 -21 -22 -22 -22 -22 -24 -25 -25 -25 -25 -25 -25 -24 -23 -23 -22 -21 -21 -20 -19 -17 -14 -13 -14 -15 -16 -16 -15 -14 -18 -17
-22 -22 -22 -22 -23 -23 -22 -21 -21 -22 -23 -23 -23 -23 -24 -24 -24 -25 -25 -25 -24 -23 -22 -22 -21 -19 -17 -13 -12 -12 -14 -15 -16 -16 -15 -15 -14 -15
-21 -21 -21 -21 -20 -19 -20 -21 -21 -21 -22 -23 -23 -22 -23 -23 -24 -24 -24 -23 -23 -22 -22 -21 -19 -16 -12 -10 -11 -12 -12 -13 -14 -14 -14 -12 -12 -12
-19 -19 -19 -13 -18 -18 -18 -19 -20 -22 -23 -21 -22 -22 -21 -22 -23 -23 -23 -22 -22 -20 -18 -15 -12 -11 -10 -10 -10 -11 -12 -13 -14 -12 -11 -12 -12 -13
-15 -10 -9 -9 -14 -15 -11 -13 -17 -18 -22 -22 -21 -22 -21 -21 -22 -22 -21 -20 -19 -16 -12 -10 -10 -10 -9 -10 -10 -10 -12 -15 -12 -11 -11 -11 -12 -11
-5 -6 -5 -5 -3 -4 -5 -5 -9 -16 -16 -9 -6 -7 -20 -21 -21 -19 -20 -13 -15 -12 -10 -10 -10 -10 -10 -10 -10 -10 -13 -12 -11 -11 -12 -12 -12 -12

GFSNE_850_dewp_069.txt.gz
Dewpoint
-0 0 1 3 5 6 6 6 7 7 7 6 7 6 6 6 5 5 4 2 -0 -1 -1 -2 -1 2 4 4 4 3 3 5 5 1 4 4 7 6
-0 0 2 3 5 6 5 5 6 7 7 7 7 6 6 5 5 4 4 2 -0 -1 -1 -2 -1 1 2 3 3 3 2 4 5 5 6 7 7 7
-0 0 2 5 5 5 5 6 6 7 7 6 5 6 5 4 4 3 3 1 -0 -1 -1 -2 -1 0 1 2 2 2 2 2 4 5 5 6 5 5
2 4 4 4 4 4 4 5 5 5 5 5 5 5 4 3 3 2 2 0 -0 -1 -1 -2 -2 -1 -0 0 1 1 2 2 3 3 3 3 3 4
3 3 3 4 4 3 4 4 4 4 4 4 3 3 3 2 2 1 -0 -0 -0 -1 -1 -2 -3 -4 -3 -2 -2 -1 0 1 1 2 2 2 2 2
1 2 2 3 2 3 3 3 3 3 3 2 2 2 2 1 0 -0 -0 -1 -1 -2 -4 -8 -15 -19 -18 -11 -6 -3 -2 -1 -0 0 0 -0 -0 1
1 1 2 2 2 2 2 2 2 2 1 1 1 0 0 -0 -0 -2 -2 -2 -5 -11 -19 -23 -23 -24 -24 -25 -25 -23 -18 -9 -4 -3 -2 -2 -2 -2
1 1 1 2 2 2 1 1 1 1 0 -0 -0 -0 -1 -1 -4 -6 -7 -11 -19 -23 -25 -24 -25 -28 -28 -27 -28 -29 -30 -30 -29 -28 -26 -26 -26 -25
1 1 1 1 0 -0 -0 -0 -0 -0 -1 -2 -1 -2 -3 -6 -8 -9 -12 -17 -23 -26 -25 -25 -26 -26 -24 -23 -22 -21 -20 -20 -21 -23 -24 -24 -25 -25
0 -0 -0 -1 -1 -1 -2 -5 -12 -17 -21 -25 -18 -16 -14 -14 -14 -17 -19 -22 -24 -25 -25 -23 -24 -21 -19 -18 -17 -17 -16 -16 -16 -16 -15 -15 -15 -16
-1 -1 -1 -1 -2 -6 -14 -19 -22 -24 -22 -25 -25 -24 -23 -22 -22 -23 -25 -26 -27 -27 -23 -21 -19 -18 -17 -16 -15 -14 -14 -14 -14 -13 -13 -13 -13 -13
-1 -3 -7 -11 -17 -21 -22 -23 -23 -24 -24 -22 -23 -26 -27 -26 -27 -28 -27 -28 -29 -28 -23 -18 -16 -16 -15 -14 -14 -13 -13 -14 -14 -14 -14 -14 -13 -13
-19 -21 -21 -23 -24 -26 -25 -24 -24 -24 -22 -22 -22 -23 -25 -25 -26 -26 -27 -27 -26 -22 -16 -15 -16 -16 -16 -15 -13 -13 -15 -15 -15 -14 -13 -13 -13 -14
-26 -24 -23 -22 -23 -22 -24 -25 -27 -26 -23 -23 -23 -25 -26 -25 -24 -25 -24 -22 -19 -17 -16 -16 -15 -15 -15 -16 -16 -16 -15 -14 -14 -14 -15 -15 -15 -14
-25 -23 -22 -21 -21 -23 -25 -28 -28 -27 -25 -25 -25 -26 -25 -25 -25 -24 -23 -19 -17 -16 -15 -15 -15 -15 -15 -16 -16 -16 -16 -16 -16 -16 -15 -15 -13 -12
-26 -25 -23 -24 -23 -23 -23 -24 -25 -25 -24 -25 -25 -25 -26 -26 -25 -25 -23 -19 -18 -16 -15 -16 -16 -16 -17 -17 -18 -17 -17 -17 -16 -15 -15 -15 -14 -14
-23 -24 -24 -24 -23 -22 -22 -22 -22 -22 -22 -23 -23 -23 -23 -24 -24 -24 -23 -22 -21 -19 -19 -19 -19 -19 -19 -19 -19 -18 -17 -16 -13 -14 -15 -17 -17 -16
-20 -21 -21 -22 -22 -23 -22 -22 -21 -21 -22 -22 -21 -22 -24 -25 -25 -26 -26 -25 -24 -23 -22 -22 -22 -21 -21 -20 -18 -17 -14 -13 -13 -14 -15 -16 -19 -18
-20 -22 -22 -22 -22 -23 -23 -23 -22 -21 -20 -19 -21 -23 -23 -23 -24 -25 -25 -25 -25 -24 -24 -23 -23 -22 -21 -20 -17 -13 -12 -12 -13 -13 -14 -15 -17 -18
-20 -21 -22 -21 -21 -21 -21 -20 -21 -21 -21 -21 -22 -22 -22 -22 -22 -23 -23 -24 -24 -23 -23 -22 -22 -21 -20 -16 -12 -11 -10 -11 -11 -12 -15 -16 -15 -15
-20 -21 -21 -20 -20 -20 -19 -16 -16 -18 -20 -21 -22 -22 -21 -19 -22 -22 -22 -22 -22 -22 -22 -21 -19 -16 -13 -11 -11 -11 -10 -10 -10 -12 -15 -13 -12 -13
-19 -20 -19 -15 -12 -9 -12 -18 -17 -17 -18 -18 -21 -21 -15 -17 -21 -21 -21 -21 -21 -21 -18 -14 -13 -11 -10 -9 -9 -10 -11 -10 -10 -13 -12 -11 -11 -11
-4 -9 -9 -11 -9 -7 -8 -10 -10 -9 -6 -5 -11 -14 -17 -11 -8 -13 -20 -21 -20 -18 -8 -11 -8 -8 -8 -9 -10 -11 -11 -10 -11 -14 -13 -11 -12 -12